This is the latest recevied weather packets stored in our database for station/object N0HEQ. If no packets are shown the sender has not sent any weather packets the latest 10 day(s).
| Time | Temp. | Humidity | Pressure | Rain* | Wind** | Luminosity | Snow |
|---|---|---|---|---|---|---|---|
| 1777670443 | 16.11° C | 23% | 1022.1 hPa | 0 mm | - | 684 W/m² | - |
| 1777670140 | 15° C | 23% | 1022.2 hPa | 0 mm | - | 707 W/m² | - |
| 1777669838 | 15.56° C | 24% | 1022.3 hPa | 0 mm | - | 130 W/m² | - |
| 1777669533 | 16.67° C | 25% | 1022.1 hPa | 0 mm | - | 227 W/m² | - |
| 1777669231 | 17.78° C | 23% | 1022.3 hPa | 0 mm | - | 157 W/m² | - |
| 1777668927 | 16.67° C | 23% | 1022.2 hPa | 0 mm | - | 749 W/m² | - |
| 1777668625 | 16.11° C | 22% | 1022.3 hPa | 0 mm | - | 758 W/m² | - |
| 1777668321 | 15.56° C | 23% | 1022.2 hPa | 0 mm | - | 760 W/m² | - |
| 1777668017 | 15.56° C | 25% | 1022.6 hPa | 0 mm | - | 764 W/m² | - |
| 1777667714 | 15.56° C | 24% | 1022.3 hPa | 0 mm | - | 761 W/m² | - |
| 1777667412 | 15.56° C | 28% | 1022.5 hPa | 0 mm | - | 801 W/m² | - |
| 1777667108 | 15.56° C | 25% | 1022.3 hPa | 0 mm | - | 821 W/m² | - |
| 1777666804 | 15.56° C | 26% | 1022.6 hPa | 0 mm | - | 825 W/m² | - |
| 1777666502 | 16.11° C | 27% | 1022.7 hPa | 0 mm | - | 843 W/m² | - |
| 1777666198 | 15.56° C | 26% | 1022.5 hPa | 0 mm | - | 862 W/m² | - |
| 1777665896 | 14.44° C | 26% | 1022.7 hPa | 0 mm | - | 270 W/m² | - |
| 1777665593 | 14.44° C | 29% | 1022.6 hPa | 0 mm | - | 870 W/m² | - |
| 1777665285 | 13.33° C | 30% | 1022.5 hPa | 0 mm | - | 264 W/m² | - |
| 1777664980 | 14.44° C | 27% | 1022.5 hPa | 0 mm | - | 199 W/m² | - |
| 1777664676 | 15° C | 30% | 1022.6 hPa | 0 mm | - | 205 W/m² | - |
| 1777664372 | 14.44° C | 31% | 1022.5 hPa | 0 mm | - | 280 W/m² | - |
| 1777664070 | 16.11° C | 27% | 1022.6 hPa | 0 mm | - | 200 W/m² | - |
| 1777663768 | 16.67° C | 31% | 1022.6 hPa | 0 mm | - | 355 W/m² | - |
| 1777663465 | 16.11° C | 27% | 1022.7 hPa | 0 mm | - | 868 W/m² | - |
| 1777663162 | 14.44° C | 32% | 1022.7 hPa | 0 mm | - | 892 W/m² | - |
* Rain latest hour (hover to see other rain measurements)
** Current wind speed in m/s (hover to see current wind gust speed)